| time (UTC) | temp F | wind direction | speed MPH | gust MPH | rain 1hr in | rain 24hr in | rain mn in | humidity % | barometer mb |
| 20260906055644 | 57 | 281 | 0.0 | 1.0 | 0.00 | 0.04 | 0.00 | 92 | 1016.5 |
| 20260906055145 | 57 | 281 | 0.0 | 2.0 | 0.00 | 0.04 | 0.00 | 92 | 1016.5 |
| 20260906054644 | 58 | 281 | 0.0 | 2.0 | 0.00 | 0.04 | 0.00 | 92 | 1016.5 |
| 20260906054143 | 58 | 281 | 1.0 | 3.0 | 0.00 | 0.04 | 0.00 | 92 | 1016.6 |
| 20260906053643 | 58 | 281 | 1.0 | 3.0 | 0.00 | 0.04 | 0.00 | 92 | 1016.5 |
| 20260906053143 | 58 | 281 | 1.0 | 2.0 | 0.00 | 0.04 | 0.00 | 92 | 1016.5 |
| 20260906052643 | 58 | 281 | 0.0 | 2.0 | 0.00 | 0.04 | 0.00 | 92 | 1016.5 |
| 20260906052143 | 59 | 281 | 1.0 | 2.0 | 0.00 | 0.04 | 0.00 | 92 | 1016.5 |
| 20260906051704 | 59 | 298 | 1.0 | 2.0 | 0.00 | 0.04 | 0.00 | 92 | 1016.4 |
| 20260906051655 | 59 | 309 | 1.0 | 2.0 | 0.00 | 0.04 | 0.00 | 92 | 1016.5 |
| 20260906050643 | 59 | 281 | 0.0 | 2.0 | 0.00 | 0.04 | 0.00 | 92 | 1016.4 |
| 20260906050143 | 59 | 281 | 1.0 | 5.0 | 0.00 | 0.04 | 0.00 | 92 | 1016.2 |
| 20260906045643 | 59 | 295 | 2.0 | 5.0 | 0.00 | 0.04 | 0.00 | 92 | 1016.2 |
| 20260906045143 | 59 | 272 | 2.0 | 5.0 | 0.00 | 0.05 | 0.00 | 92 | 1016.4 |
| 20260906044636 | 59 | 299 | 0.0 | 2.0 | 0.00 | 0.05 | 0.00 | 92 | 1016.4 |
| 20260906044135 | 59 | 326 | 0.0 | 2.0 | 0.00 | 0.05 | 0.00 | 92 | 1016.5 |
| 20260906043635 | 60 | 355 | 1.0 | 2.0 | 0.00 | 0.05 | 0.00 | 92 | 1016.4 |
| 20260906043408 | 60 | 327 | 1.0 | 4.0 | 0.00 | 0.05 | 0.00 | 92 | 1016.4 |
| 20260906042633 | 60 | 307 | 1.0 | 5.0 | 0.00 | 0.05 | 0.00 | 92 | 1016.2 |
| 20260906042135 | 60 | 6 | 2.0 | 5.0 | 0.00 | 0.05 | 0.00 | 92 | 1016.4 |
| 20260906041905 | 60 | 271 | 2.0 | 5.0 | 0.00 | 0.05 | 0.00 | 91 | 1016.2 |
| 20260906041131 | 60 | 345 | 2.0 | 4.0 | 0.00 | 0.05 | 0.00 | 91 | 1016.4 |
| 20260906040631 | 60 | 262 | 0.0 | 3.0 | 0.00 | 0.05 | 0.00 | 91 | 1016.5 |
| 20260906040130 | 60 | 340 | 2.0 | 3.0 | 0.00 | 0.05 | 0.00 | 90 | 1016.4 |
| 20260906035629 | 60 | 227 | 1.0 | 3.0 | 0.00 | 0.05 | 0.05 | 90 | 1016.5 |
| 20260906035129 | 60 | 307 | 0.0 | 4.0 | 0.00 | 0.05 | 0.05 | 90 | 1016.5 |
| 20260906034628 | 60 | 292 | 0.0 | 4.0 | 0.00 | 0.05 | 0.05 | 90 | 1016.4 |
| 20260906034129 | 60 | 104 | 1.0 | 3.0 | 0.00 | 0.05 | 0.05 | 90 | 1016.4 |
| 20260906033630 | 60 | 1 | 0.0 | 3.0 | 0.00 | 0.05 | 0.05 | 90 | 1016.4 |
| 20260906033402 | 60 | 340 | 0.0 | 4.0 | 0.00 | 0.05 | 0.05 | 90 | 1016.2 |
| 20260906032628 | 60 | 326 | 1.0 | 4.0 | 0.00 | 0.05 | 0.05 | 90 | 1016.2 |
| 20260906032130 | 60 | 271 | 0.0 | 3.0 | 0.00 | 0.05 | 0.05 | 90 | 1016.2 |
| 20260906031629 | 60 | 350 | 0.0 | 3.0 | 0.00 | 0.05 | 0.05 | 90 | 1016.1 |
| 20260906031404 | 60 | 320 | 0.0 | 4.0 | 0.00 | 0.05 | 0.05 | 90 | 1016.1 |
| 20260906030629 | 60 | 283 | 2.0 | 4.0 | 0.00 | 0.05 | 0.05 | 90 | 1016.1 |
| 20260906030130 | 60 | 296 | 2.0 | 5.0 | 0.00 | 0.05 | 0.05 | 90 | 1016.1 |
| 20260906025631 | 60 | 358 | 3.0 | 5.0 | 0.00 | 0.05 | 0.05 | 90 | 1016.0 |
| 20260906025128 | 60 | 37 | 2.0 | 4.0 | 0.00 | 0.05 | 0.05 | 89 | 1016.0 |
| 20260906024629 | 61 | 71 | 1.0 | 6.0 | 0.00 | 0.05 | 0.05 | 89 | 1016.0 |
| 20260906024128 | 61 | 8 | 2.0 | 6.0 | 0.00 | 0.05 | 0.05 | 88 | 1015.9 |
| 20260906023627 | 61 | 76 | 1.0 | 3.0 | 0.00 | 0.05 | 0.05 | 87 | 1015.9 |
| 20260906023127 | 61 | 309 | 1.0 | 3.0 | 0.00 | 0.05 | 0.05 | 87 | 1016.0 |
| 20260906022628 | 61 | 282 | 0.0 | 2.0 | 0.00 | 0.05 | 0.05 | 87 | 1016.0 |
| 20260906022127 | 61 | 319 | 0.0 | 2.0 | 0.00 | 0.05 | 0.05 | 87 | 1016.0 |
| 20260906021627 | 61 | 319 | 0.0 | 2.0 | 0.00 | 0.05 | 0.05 | 86 | 1016.1 |
| 20260906021125 | 62 | 303 | 0.0 | 1.0 | 0.00 | 0.05 | 0.05 | 85 | 1016.0 |
| 20260906020624 | 62 | 58 | 0.0 | 2.0 | 0.00 | 0.06 | 0.05 | 86 | 1016.0 |
| 20260906020358 | 62 | 58 | 0.0 | 2.0 | 0.00 | 0.06 | 0.05 | 86 | 1015.9 |
| 20260906015623 | 62 | 30 | 0.0 | 3.0 | 0.00 | 0.06 | 0.05 | 85 | 1015.8 |
| 20260906015122 | 62 | 30 | 1.0 | 3.0 | 0.00 | 0.06 | 0.05 | 85 | 1015.8 |
| 20260906014621 | 62 | 47 | 0.0 | 3.0 | 0.00 | 0.06 | 0.05 | 85 | 1015.7 |
| 20260906014121 | 62 | 302 | 0.0 | 4.0 | 0.00 | 0.06 | 0.05 | 85 | 1015.7 |
| 20260906013619 | 62 | 358 | 2.0 | 5.0 | 0.00 | 0.06 | 0.05 | 85 | 1015.6 |
| 20260906013119 | 62 | 271 | 1.0 | 5.0 | 0.00 | 0.06 | 0.05 | 84 | 1015.6 |
| 20260906012618 | 62 | 303 | 1.0 | 5.0 | 0.00 | 0.06 | 0.05 | 84 | 1015.6 |
| 20260906012116 | 63 | 227 | 1.0 | 9.0 | 0.00 | 0.06 | 0.05 | 84 | 1015.5 |
| 20260906011617 | 63 | 341 | 2.0 | 9.0 | 0.00 | 0.06 | 0.05 | 84 | 1015.6 |
| 20260906011117 | 63 | 107 | 3.0 | 7.0 | 0.00 | 0.06 | 0.05 | 84 | 1015.5 |
| 20260906010617 | 63 | 313 | 2.0 | 6.0 | 0.00 | 0.06 | 0.05 | 84 | 1015.5 |
| 20260906010118 | 63 | 1 | 1.0 | 5.0 | 0.00 | 0.06 | 0.05 | 83 | 1015.5 |
| 20260906005851 | 63 | 54 | 1.0 | 6.0 | 0.00 | 0.06 | 0.05 | 82 | 1015.4 |
| 20260906005114 | 63 | 345 | 2.0 | 6.0 | 0.00 | 0.06 | 0.05 | 82 | 1015.3 |
| 20260906004832 | 63 | 254 | 0.0 | 7.0 | 0.00 | 0.06 | 0.05 | 82 | 1015.3 |
| 20260906004113 | 64 | 289 | 2.0 | 7.0 | 0.00 | 0.06 | 0.05 | 81 | 1015.2 |
| 20260906003615 | 64 | 289 | 2.0 | 5.0 | 0.00 | 0.06 | 0.05 | 81 | 1015.2 |
| 20260906003112 | 64 | 330 | 1.0 | 6.0 | 0.00 | 0.06 | 0.05 | 81 | 1015.3 |
| 20260906002611 | 64 | 23 | 1.0 | 7.0 | 0.00 | 0.06 | 0.05 | 81 | 1015.2 |
| 20260906002556 | 64 | 336 | 1.0 | 7.0 | 0.00 | 0.06 | 0.05 | 80 | 1015.2 |
| 20260906001609 | 64 | 300 | 3.0 | 6.0 | 0.00 | 0.06 | 0.05 | 80 | 1015.2 |
| 20260906001342 | 65 | 31 | 2.0 | 10.0 | 0.00 | 0.06 | 0.05 | 79 | 1015.2 |
| 20260906000608 | 65 | 234 | 3.0 | 10.0 | 0.00 | 0.06 | 0.05 | 79 | 1015.2 |
| 20260906000107 | 65 | 348 | 3.0 | 10.0 | 0.00 | 0.06 | 0.05 | 78 | 1015.2 |
| 20260905235607 | 65 | 326 | 3.0 | 10.0 | 0.00 | 0.06 | 0.05 | 78 | 1015.0 |
| 20260905235108 | 65 | 51 | 1.0 | 6.0 | 0.00 | 0.06 | 0.05 | 77 | 1015.1 |
| 20260905234610 | 66 | 152 | 0.0 | 4.0 | 0.00 | 0.06 | 0.05 | 77 | 1015.1 |
| 20260905234342 | 66 | 28 | 1.0 | 5.0 | 0.00 | 0.06 | 0.05 | 76 | 1015.1 |
| 20260905233602 | 66 | 23 | 1.0 | 6.0 | 0.00 | 0.06 | 0.05 | 75 | 1015.0 |
| 20260905233335 | 67 | 41 | 1.0 | 6.0 | 0.00 | 0.06 | 0.05 | 75 | 1015.0 |
| 20260905232602 | 67 | 337 | 1.0 | 5.0 | 0.00 | 0.06 | 0.05 | 74 | 1015.0 |
| 20260905232103 | 67 | 69 | 0.0 | 5.0 | 0.00 | 0.07 | 0.05 | 74 | 1015.0 |
| 20260905231601 | 68 | 185 | 0.0 | 9.0 | 0.00 | 0.07 | 0.05 | 73 | 1015.1 |
| 20260905231320 | 68 | 330 | 2.0 | 9.0 | 0.00 | 0.07 | 0.05 | 72 | 1015.1 |
| 20260905230601 | 68 | 282 | 2.0 | 7.0 | 0.00 | 0.07 | 0.05 | 72 | 1015.0 |
| 20260905230549 | 69 | 172 | 3.0 | 7.0 | 0.00 | 0.07 | 0.05 | 71 | 1015.1 |
| 20260905225600 | 69 | 200 | 2.0 | 7.0 | 0.00 | 0.07 | 0.05 | 71 | 1015.0 |
| 20260905225101 | 70 | 326 | 1.0 | 7.0 | 0.00 | 0.07 | 0.05 | 70 | 1015.0 |
| 20260905224836 | 71 | 113 | 0.0 | 5.0 | 0.00 | 0.07 | 0.05 | 69 | 1015.0 |
| 20260905224101 | 71 | 1 | 2.0 | 5.0 | 0.00 | 0.07 | 0.05 | 68 | 1014.9 |
| 20260905223601 | 71 | 234 | 1.0 | 4.0 | 0.00 | 0.07 | 0.05 | 67 | 1015.1 |
| 20260905223101 | 72 | 0 | 1.0 | 3.0 | 0.00 | 0.07 | 0.05 | 66 | 1015.0 |
| 20260905222600 | 72 | 345 | 0.0 | 4.0 | 0.01 | 0.07 | 0.05 | 66 | 1015.1 |
| 20260905222101 | 73 | 247 | 0.0 | 5.0 | 0.01 | 0.07 | 0.05 | 65 | 1014.8 |
| 20260905221602 | 73 | 257 | 1.0 | 5.0 | 0.01 | 0.07 | 0.05 | 64 | 1014.7 |
| 20260905221102 | 73 | 97 | 0.0 | 7.0 | 0.01 | 0.07 | 0.05 | 64 | 1014.7 |
| 20260905220839 | 73 | 310 | 1.0 | 7.0 | 0.01 | 0.07 | 0.05 | 65 | 1014.8 |
| 20260905215832 | 73 | 299 | 3.0 | 6.0 | 0.01 | 0.06 | 0.05 | 65 | 1014.7 |
| 20260905215103 | 73 | 324 | 1.0 | 4.0 | 0.01 | 0.06 | 0.05 | 66 | 1014.6 |
| 20260905215056 | 72 | 338 | 1.0 | 4.0 | 0.01 | 0.06 | 0.05 | 66 | 1014.6 |
| 20260905214316 | 72 | 331 | 0.0 | 4.0 | 0.01 | 0.06 | 0.05 | 67 | 1014.5 |
| 20260905213544 | 72 | 255 | 0.0 | 4.0 | 0.01 | 0.06 | 0.05 | 69 | 1014.5 |
| 20260905213044 | 72 | 138 | 0.0 | 4.0 | 0.01 | 0.06 | 0.05 | 69 | 1014.4 |
| 20260905212542 | 72 | 254 | 3.0 | 4.0 | 0.00 | 0.06 | 0.04 | 66 | 1014.5 |
| 20260905212042 | 72 | 329 | 0.0 | 4.0 | 0.00 | 0.06 | 0.04 | 69 | 1014.4 |
| 20260905211542 | 72 | 321 | 1.0 | 4.0 | 0.00 | 0.06 | 0.04 | 69 | 1014.4 |
| 20260905211042 | 72 | 326 | 0.0 | 5.0 | 0.00 | 0.06 | 0.04 | 67 | 1014.4 |
| 20260905211030 | 72 | 305 | 0.0 | 7.0 | 0.00 | 0.07 | 0.04 | 66 | 1014.2 |
| 20260905210042 | 73 | 302 | 1.0 | 7.0 | 0.00 | 0.07 | 0.04 | 65 | 1014.2 |
| 20260905205543 | 73 | 336 | 0.0 | 5.0 | 0.00 | 0.07 | 0.04 | 65 | 1014.4 |
| 20260905205042 | 73 | 345 | 2.0 | 5.0 | 0.00 | 0.07 | 0.04 | 66 | 1014.5 |
| 20260905204807 | 73 | 303 | 1.0 | 6.0 | 0.00 | 0.07 | 0.04 | 65 | 1014.4 |
| 20260905203542 | 73 | 344 | 2.0 | 7.0 | 0.00 | 0.07 | 0.04 | 68 | 1014.4 |
| 20260905203042 | 73 | 333 | 1.0 | 7.0 | 0.00 | 0.07 | 0.04 | 66 | 1014.5 |
| 20260905202541 | 73 | 233 | 1.0 | 7.0 | 0.00 | 0.07 | 0.04 | 66 | 1014.4 |
| 20260905202042 | 72 | 281 | 1.0 | 6.0 | 0.00 | 0.07 | 0.04 | 68 | 1014.5 |
| 20260905201542 | 72 | 307 | 2.0 | 5.0 | 0.00 | 0.07 | 0.04 | 67 | 1014.4 |
| 20260905201043 | 72 | 307 | 1.0 | 3.0 | 0.00 | 0.07 | 0.04 | 67 | 1014.4 |
| 20260905200559 | 72 | 52 | 1.0 | 5.0 | 0.00 | 0.07 | 0.04 | 66 | 1014.4 |
| 20260905200555 | 73 | 269 | 1.0 | 5.0 | 0.00 | 0.07 | 0.04 | 66 | 1014.5 |
| 20260905200547 | 72 | 62 | 1.0 | 5.0 | 0.00 | 0.07 | 0.04 | 67 | 1014.5 |
| 20260905195531 | 73 | 358 | 2.0 | 5.0 | 0.00 | 0.07 | 0.04 | 65 | 1014.4 |
| 20260905194542 | 73 | 107 | 0.0 | 5.0 | 0.00 | 0.07 | 0.04 | 65 | 1014.4 |
| 20260905194043 | 73 | 278 | 0.0 | 6.0 | 0.00 | 0.07 | 0.04 | 63 | 1014.4 |
| 20260905194033 | 73 | 0 | 1.0 | 7.0 | 0.00 | 0.07 | 0.04 | 65 | 1014.4 |
| 20260905193042 | 73 | 314 | 1.0 | 7.0 | 0.00 | 0.07 | 0.04 | 64 | 1014.4 |
| 20260905192819 | 73 | 302 | 3.0 | 6.0 | 0.00 | 0.07 | 0.04 | 67 | 1014.4 |
| 20260905192537 | 73 | 327 | 1.0 | 9.0 | 0.00 | 0.07 | 0.04 | 64 | 1014.5 |
| 20260905191544 | 73 | 189 | 1.0 | 9.0 | 0.00 | 0.07 | 0.04 | 64 | 1014.5 |
| 20260905191318 | 73 | 274 | 1.0 | 6.0 | 0.00 | 0.08 | 0.04 | 64 | 1014.2 |
| 20260905190822 | 74 | 7 | 2.0 | 7.0 | 0.00 | 0.08 | 0.04 | 62 | 1014.4 |
| 20260905190043 | 74 | 28 | 3.0 | 7.0 | 0.00 | 0.08 | 0.04 | 60 | 1014.5 |
| 20260905185542 | 74 | 310 | 2.0 | 10.0 | 0.00 | 0.08 | 0.04 | 60 | 1014.5 |
| 20260905185306 | 74 | 307 | 4.0 | 10.0 | 0.00 | 0.08 | 0.04 | 70 | 1014.5 |
| 20260905183543 | 73 | 86 | 2.0 | 7.0 | 0.00 | 0.08 | 0.04 | 63 | 1014.5 |
| 20260905183042 | 74 | 14 | 2.0 | 7.0 | 0.00 | 0.08 | 0.04 | 62 | 1014.6 |
| 20260905182542 | 74 | 1 | 2.0 | 9.0 | 0.00 | 0.08 | 0.04 | 65 | 1014.6 |
| 20260905182042 | 74 | 17 | 4.0 | 10.0 | 0.00 | 0.08 | 0.04 | 62 | 1014.6 |
| 20260905181542 | 74 | 309 | 2.0 | 10.0 | 0.00 | 0.08 | 0.04 | 65 | 1014.5 |
| 20260905181307 | 74 | 275 | 1.0 | 5.0 | 0.00 | 0.08 | 0.04 | 65 | 1014.4 |
| 20260905180544 | 74 | 282 | 2.0 | 4.0 | 0.00 | 0.08 | 0.04 | 65 | 1014.6 |
| 20260905180100 | 73 | 49 | 1.0 | 7.0 | 0.00 | 0.08 | 0.04 | 63 | 1014.6 |
| 20260905180053 | 73 | 165 | 0.0 | 7.0 | 0.00 | 0.08 | 0.04 | 67 | 1014.6 |
| 20260905175042 | 73 | 4 | 0.0 | 9.0 | 0.00 | 0.08 | 0.04 | 62 | 1014.7 |
| 20260905174542 | 73 | 274 | 5.0 | 9.0 | 0.00 | 0.08 | 0.04 | 63 | 1014.6 |
| 20260905174042 | 73 | 72 | 1.0 | 6.0 | 0.00 | 0.08 | 0.04 | 68 | 1014.6 |
| 20260905173542 | 73 | 41 | 2.0 | 5.0 | 0.00 | 0.08 | 0.04 | 65 | 1014.7 |
| 20260905173043 | 72 | 303 | 3.0 | 10.0 | 0.00 | 0.08 | 0.04 | 69 | 1014.7 |
| 20260905172801 | 72 | 244 | 4.0 | 10.0 | 0.00 | 0.08 | 0.04 | 70 | 1014.7 |
| 20260905172042 | 72 | 261 | 2.0 | 9.0 | 0.00 | 0.08 | 0.04 | 70 | 1014.8 |
| 20260905171543 | 72 | 354 | 2.0 | 9.0 | 0.00 | 0.08 | 0.04 | 70 | 1014.8 |
| 20260905171042 | 72 | 331 | 0.0 | 4.0 | 0.00 | 0.08 | 0.04 | 68 | 1014.9 |
| 20260905171014 | 72 | 355 | 0.0 | 7.0 | 0.00 | 0.08 | 0.04 | 67 | 1014.8 |
| 20260905165542 | 73 | 319 | 2.0 | 9.0 | 0.00 | 0.08 | 0.04 | 66 | 1015.0 |
| 20260905165042 | 72 | 247 | 0.0 | 9.0 | 0.00 | 0.08 | 0.04 | 69 | 1015.0 |
| 20260905164542 | 72 | 257 | 0.0 | 6.0 | 0.00 | 0.08 | 0.04 | 71 | 1015.0 |
| 20260905164042 | 71 | 320 | 3.0 | 6.0 | 0.00 | 0.08 | 0.04 | 70 | 1015.1 |
| 20260905163542 | 71 | 321 | 4.0 | 6.0 | 0.00 | 0.08 | 0.04 | 70 | 1015.2 |
| 20260905163522 | 71 | 289 | 0.0 | 7.0 | 0.00 | 0.08 | 0.04 | 69 | 1015.2 |
| 20260905162543 | 71 | 290 | 4.0 | 7.0 | 0.01 | 0.08 | 0.04 | 70 | 1015.2 |
| 20260905162043 | 71 | 343 | 3.0 | 6.0 | 0.01 | 0.08 | 0.04 | 68 | 1015.2 |
| 20260905161814 | 71 | 345 | 2.0 | 7.0 | 0.01 | 0.08 | 0.04 | 69 | 1015.2 |
| 20260905161319 | 71 | 27 | 3.0 | 7.0 | 0.01 | 0.08 | 0.04 | 68 | 1015.2 |
| 20260905161040 | 71 | 59 | 3.0 | 9.0 | 0.01 | 0.08 | 0.04 | 67 | 1015.1 |
| 20260905160739 | 70 | 324 | 2.0 | 9.0 | 0.01 | 0.09 | 0.04 | 72 | 1015.0 |
| 20260905155536 | 70 | 159 | 0.0 | 9.0 | 0.01 | 0.08 | 0.04 | 73 | 1015.1 |
| 20260905154542 | 70 | 295 | 2.0 | 9.0 | 0.01 | 0.08 | 0.04 | 70 | 1015.1 |
| 20260905154041 | 71 | 305 | 2.0 | 6.0 | 0.01 | 0.08 | 0.04 | 69 | 1015.0 |
| 20260905153542 | 71 | 290 | 2.0 | 6.0 | 0.01 | 0.08 | 0.04 | 68 | 1015.1 |
| 20260905153042 | 71 | 204 | 2.0 | 7.0 | 0.01 | 0.08 | 0.04 | 68 | 1015.2 |
| 20260905152542 | 71 | 16 | 2.0 | 7.0 | 0.00 | 0.08 | 0.03 | 72 | 1015.1 |
| 20260905152306 | 70 | 338 | 1.0 | 6.0 | 0.00 | 0.08 | 0.03 | 76 | 1015.1 |
| 20260905151543 | 70 | 353 | 2.0 | 9.0 | 0.00 | 0.08 | 0.03 | 76 | 1015.1 |
| 20260905151042 | 70 | 310 | 3.0 | 11.0 | 0.00 | 0.08 | 0.03 | 76 | 1015.2 |
| 20260905150542 | 70 | 274 | 6.0 | 11.0 | 0.00 | 0.08 | 0.03 | 74 | 1015.3 |
| 20260905150042 | 70 | 336 | 3.0 | 10.0 | 0.00 | 0.08 | 0.03 | 74 | 1015.3 |
| 20260905145542 | 69 | 217 | 4.0 | 10.0 | 0.00 | 0.08 | 0.03 | 75 | 1015.3 |
| 20260905145530 | 68 | 305 | 2.0 | 6.0 | 0.00 | 0.08 | 0.03 | 78 | 1015.4 |
| 20260905144542 | 68 | 348 | 2.0 | 13.0 | 0.00 | 0.08 | 0.03 | 78 | 1015.4 |
| 20260905144044 | 68 | 63 | 6.0 | 13.0 | 0.00 | 0.08 | 0.03 | 76 | 1015.4 |
| 20260905143542 | 67 | 353 | 3.0 | 9.0 | 0.00 | 0.08 | 0.03 | 81 | 1015.3 |
| 20260905143042 | 67 | 255 | 2.0 | 9.0 | 0.00 | 0.08 | 0.03 | 81 | 1015.2 |
| 20260905142541 | 66 | 303 | 3.0 | 9.0 | 0.00 | 0.08 | 0.03 | 84 | 1015.2 |
| 20260905142042 | 66 | 343 | 3.0 | 7.0 | 0.00 | 0.08 | 0.03 | 85 | 1015.3 |
| 20260905141542 | 65 | 296 | 2.0 | 9.0 | 0.00 | 0.08 | 0.03 | 85 | 1015.4 |
| 20260905141042 | 65 | 1 | 1.0 | 9.0 | 0.00 | 0.08 | 0.03 | 87 | 1015.3 |
| 20260905140542 | 65 | 353 | 2.0 | 5.0 | 0.00 | 0.08 | 0.03 | 92 | 1015.3 |
| 20260905140042 | 64 | 276 | 2.0 | 4.0 | 0.00 | 0.08 | 0.03 | 93 | 1015.2 |
| 20260905135541 | 64 | 341 | 0.0 | 4.0 | 0.00 | 0.08 | 0.03 | 93 | 1015.2 |
| 20260905135043 | 63 | 230 | 1.0 | 3.0 | 0.00 | 0.08 | 0.03 | 92 | 1015.2 |
| 20260905134542 | 63 | 358 | 1.0 | 6.0 | 0.00 | 0.08 | 0.03 | 93 | 1015.2 |
| 20260905134042 | 62 | 234 | 2.0 | 7.0 | 0.00 | 0.08 | 0.03 | 93 | 1015.1 |
| 20260905133541 | 62 | 16 | 2.0 | 7.0 | 0.00 | 0.08 | 0.03 | 94 | 1015.2 |
| 20260905133042 | 62 | 333 | 0.0 | 7.0 | 0.00 | 0.08 | 0.03 | 95 | 1015.2 |
| 20260905132542 | 62 | 307 | 3.0 | 7.0 | 0.00 | 0.08 | 0.03 | 95 | 1015.3 |
| 20260905132041 | 62 | 320 | 1.0 | 4.0 | 0.00 | 0.08 | 0.03 | 96 | 1015.2 |
| 20260905131542 | 62 | 271 | 0.0 | 4.0 | 0.00 | 0.08 | 0.03 | 96 | 1015.0 |
| 20260905131042 | 62 | 307 | 1.0 | 5.0 | 0.00 | 0.08 | 0.03 | 96 | 1015.1 |
| 20260905130808 | 62 | 300 | 2.0 | 5.0 | 0.00 | 0.08 | 0.03 | 96 | 1015.1 |
| 20260905130041 | 61 | 320 | 0.0 | 5.0 | 0.00 | 0.09 | 0.03 | 97 | 1015.2 |
| 20260905125541 | 61 | 289 | 2.0 | 5.0 | 0.00 | 0.09 | 0.03 | 97 | 1015.2 |
| 20260905125042 | 61 | 348 | 0.0 | 3.0 | 0.00 | 0.09 | 0.03 | 97 | 1015.1 |
| 20260905124816 | 61 | 289 | 0.0 | 5.0 | 0.00 | 0.09 | 0.03 | 97 | 1015.1 |
| 20260905124041 | 60 | 289 | 2.0 | 5.0 | 0.00 | 0.09 | 0.03 | 96 | 1015.2 |
| 20260905123542 | 60 | 275 | 2.0 | 7.0 | 0.00 | 0.09 | 0.03 | 96 | 1015.2 |
| 20260905123043 | 60 | 336 | 2.0 | 7.0 | 0.00 | 0.09 | 0.03 | 97 | 1015.0 |
| 20260905122543 | 60 | 10 | 2.0 | 5.0 | 0.00 | 0.09 | 0.03 | 97 | 1015.1 |
| 20260905122041 | 60 | 306 | 2.0 | 5.0 | 0.00 | 0.09 | 0.03 | 96 | 1015.2 |
| 20260905121542 | 60 | 282 | 3.0 | 5.0 | 0.00 | 0.09 | 0.03 | 96 | 1015.1 |
| 20260905121042 | 60 | 345 | 2.0 | 5.0 | 0.00 | 0.09 | 0.03 | 96 | 1015.2 |
| 20260905120541 | 60 | 255 | 2.0 | 9.0 | 0.01 | 0.09 | 0.03 | 96 | 1015.2 |
| 20260905120043 | 60 | 288 | 4.0 | 9.0 | 0.01 | 0.09 | 0.03 | 96 | 1015.3 |
| 20260905115542 | 59 | 306 | 2.0 | 6.0 | 0.01 | 0.08 | 0.03 | 96 | 1015.2 |
| 20260905115318 | 59 | 261 | 2.0 | 6.0 | 0.01 | 0.08 | 0.03 | 96 | 1015.2 |
| 20260905114814 | 59 | 310 | 3.0 | 5.0 | 0.01 | 0.08 | 0.03 | 96 | 1015.3 |
| 20260905114041 | 59 | 340 | 2.0 | 5.0 | 0.01 | 0.08 | 0.03 | 96 | 1015.3 |
| 20260905113541 | 59 | 296 | 1.0 | 4.0 | 0.01 | 0.08 | 0.03 | 96 | 1015.2 |
| 20260905113041 | 59 | 313 | 3.0 | 4.0 | 0.01 | 0.09 | 0.03 | 96 | 1015.0 |
| 20260905112541 | 58 | 300 | 1.0 | 5.0 | 0.01 | 0.09 | 0.03 | 96 | 1015.0 |
| 20260905112042 | 58 | 295 | 1.0 | 5.0 | 0.01 | 0.09 | 0.03 | 96 | 1014.9 |
| 20260905111541 | 58 | 272 | 2.0 | 4.0 | 0.01 | 0.09 | 0.03 | 96 | 1014.6 |
| 20260905111042 | 58 | 324 | 1.0 | 4.0 | 0.01 | 0.09 | 0.03 | 96 | 1014.7 |
| 20260905110541 | 58 | 336 | 1.0 | 3.0 | 0.00 | 0.09 | 0.02 | 95 | 1014.5 |
| 20260905110042 | 58 | 295 | 1.0 | 3.0 | 0.00 | 0.09 | 0.02 | 95 | 1014.4 |
| 20260905105542 | 58 | 295 | 1.0 | 3.0 | 0.00 | 0.09 | 0.02 | 95 | 1014.4 |
| 20260905105318 | 58 | 295 | 2.0 | 3.0 | 0.00 | 0.09 | 0.02 | 95 | 1014.2 |
| 20260905104541 | 58 | 312 | 2.0 | 4.0 | 0.00 | 0.09 | 0.02 | 95 | 1014.1 |
| 20260905104103 | 58 | 296 | 2.0 | 4.0 | 0.00 | 0.09 | 0.02 | 95 | 1014.1 |
| 20260905104055 | 58 | 312 | 2.0 | 4.0 | 0.00 | 0.09 | 0.02 | 95 | 1014.1 |
| 20260905103041 | 58 | 296 | 2.0 | 4.0 | 0.00 | 0.09 | 0.02 | 95 | 1014.2 |
| 20260905102543 | 58 | 296 | 3.0 | 3.0 | 0.00 | 0.09 | 0.02 | 95 | 1014.4 |
| 20260905102316 | 58 | 296 | 2.0 | 3.0 | 0.00 | 0.09 | 0.02 | 95 | 1014.2 |
| 20260905101541 | 58 | 296 | 2.0 | 3.0 | 0.00 | 0.09 | 0.02 | 95 | 1013.9 |
| 20260905101042 | 58 | 296 | 1.0 | 2.0 | 0.00 | 0.10 | 0.02 | 95 | 1014.0 |
| 20260905100541 | 58 | 296 | 2.0 | 3.0 | 0.00 | 0.10 | 0.02 | 95 | 1014.0 |
| 20260905100041 | 58 | 296 | 2.0 | 3.0 | 0.00 | 0.10 | 0.02 | 95 | 1013.9 |
| 20260905095542 | 58 | 296 | 2.0 | 3.0 | 0.00 | 0.10 | 0.02 | 94 | 1013.9 |
| 20260905095042 | 58 | 296 | 2.0 | 3.0 | 0.00 | 0.10 | 0.02 | 94 | 1013.9 |
| 20260905094542 | 58 | 296 | 1.0 | 3.0 | 0.00 | 0.10 | 0.02 | 94 | 1013.9 |
| 20260905094319 | 58 | 296 | 2.0 | 4.0 | 0.00 | 0.10 | 0.02 | 94 | 1014.0 |
| 20260905093542 | 59 | 296 | 2.0 | 4.0 | 0.00 | 0.10 | 0.02 | 94 | 1013.9 |
| 20260905093040 | 59 | 296 | 3.0 | 4.0 | 0.00 | 0.10 | 0.02 | 94 | 1013.9 |
| 20260905092541 | 59 | 296 | 2.0 | 3.0 | 0.00 | 0.10 | 0.02 | 94 | 1013.8 |
| 20260905092041 | 59 | 296 | 2.0 | 3.0 | 0.00 | 0.10 | 0.02 | 94 | 1013.9 |
| 20260905091542 | 59 | 296 | 2.0 | 3.0 | 0.00 | 0.10 | 0.02 | 94 | 1013.8 |
| 20260905091042 | 59 | 285 | 2.0 | 4.0 | 0.00 | 0.11 | 0.02 | 94 | 1013.7 |
| 20260905090542 | 59 | 285 | 2.0 | 4.0 | 0.01 | 0.11 | 0.02 | 94 | 1013.6 |
| 20260905090041 | 59 | 299 | 2.0 | 4.0 | 0.01 | 0.11 | 0.02 | 94 | 1013.6 |
| 20260905085814 | 59 | 316 | 2.0 | 3.0 | 0.01 | 0.10 | 0.02 | 94 | 1013.6 |
| 20260905085042 | 60 | 316 | 2.0 | 3.0 | 0.01 | 0.10 | 0.02 | 94 | 1013.6 |
| 20260905084542 | 60 | 316 | 1.0 | 3.0 | 0.01 | 0.10 | 0.02 | 94 | 1013.6 |
| 20260905084316 | 60 | 300 | 1.0 | 3.0 | 0.01 | 0.10 | 0.02 | 93 | 1013.6 |
| 20260905083541 | 60 | 300 | 1.0 | 4.0 | 0.01 | 0.10 | 0.02 | 93 | 1013.6 |
| 20260905083042 | 60 | 281 | 2.0 | 4.0 | 0.01 | 0.10 | 0.02 | 93 | 1013.7 |
| 20260905082542 | 60 | 295 | 0.0 | 4.0 | 0.01 | 0.10 | 0.02 | 93 | 1013.6 |
| 20260905082316 | 60 | 290 | 1.0 | 4.0 | 0.01 | 0.10 | 0.02 | 93 | 1013.7 |
| 20260905081817 | 60 | 306 | 1.0 | 3.0 | 0.01 | 0.10 | 0.02 | 93 | 1013.8 |
| 20260905081041 | 60 | 283 | 1.0 | 4.0 | 0.01 | 0.11 | 0.02 | 93 | 1013.7 |
| 20260905080541 | 60 | 307 | 2.0 | 4.0 | 0.00 | 0.11 | 0.01 | 93 | 1013.8 |
| 20260905080041 | 60 | 298 | 1.0 | 5.0 | 0.00 | 0.11 | 0.01 | 93 | 1013.9 |
| 20260905075541 | 60 | 295 | 2.0 | 5.0 | 0.00 | 0.11 | 0.01 | 92 | 1013.9 |
| 20260905075044 | 60 | 303 | 1.0 | 4.0 | 0.00 | 0.11 | 0.01 | 92 | 1013.9 |
| 20260905074814 | 60 | 316 | 1.0 | 4.0 | 0.00 | 0.11 | 0.01 | 92 | 1013.9 |
| 20260905074042 | 60 | 276 | 2.0 | 5.0 | 0.00 | 0.11 | 0.01 | 92 | 1013.8 |
| 20260905073816 | 60 | 290 | 1.0 | 5.0 | 0.00 | 0.11 | 0.01 | 91 | 1013.9 |
| 20260905073041 | 60 | 299 | 2.0 | 3.0 | 0.00 | 0.11 | 0.01 | 91 | 1013.9 |
| 20260905072542 | 60 | 306 | 1.0 | 4.0 | 0.00 | 0.11 | 0.01 | 91 | 1014.0 |
| 20260905072041 | 60 | 323 | 1.0 | 4.0 | 0.00 | 0.11 | 0.01 | 91 | 1014.1 |
| 20260905071541 | 61 | 309 | 2.0 | 4.0 | 0.00 | 0.12 | 0.01 | 91 | 1014.1 |
| 20260905071040 | 61 | 337 | 2.0 | 4.0 | 0.00 | 0.12 | 0.01 | 91 | 1014.2 |
| 20260905070541 | 61 | 310 | 2.0 | 4.0 | 0.00 | 0.12 | 0.01 | 91 | 1014.1 |
| 20260905070042 | 61 | 302 | 1.0 | 3.0 | 0.00 | 0.12 | 0.01 | 91 | 1014.4 |
| 20260905065542 | 61 | 313 | 1.0 | 3.0 | 0.00 | 0.12 | 0.01 | 91 | 1014.4 |
| 20260905065041 | 61 | 289 | 1.0 | 3.0 | 0.00 | 0.12 | 0.01 | 91 | 1014.2 |
| 20260905064316 | 61 | 307 | 0.0 | 3.0 | 0.00 | 0.12 | 0.01 | 91 | 1014.5 |
| 20260905063541 | 62 | 302 | 1.0 | 4.0 | 0.00 | 0.12 | 0.01 | 91 | 1014.6 |
| 20260905063042 | 62 | 320 | 1.0 | 4.0 | 0.00 | 0.12 | 0.01 | 90 | 1014.5 |
| 20260905062541 | 62 | 333 | 2.0 | 4.0 | 0.00 | 0.13 | 0.01 | 90 | 1014.7 |
| 20260905062041 | 62 | 316 | 2.0 | 4.0 | 0.00 | 0.13 | 0.01 | 90 | 1014.7 |
| 20260905061542 | 62 | 316 | 1.0 | 4.0 | 0.00 | 0.13 | 0.01 | 90 | 1014.6 |
| 20260905061043 | 62 | 272 | 2.0 | 4.0 | 0.00 | 0.13 | 0.01 | 89 | 1014.7 |
| 20260905060540 | 62 | 298 | 2.0 | 4.0 | 0.00 | 0.13 | 0.01 | 89 | 1014.7 |